DLH7AA EDDF-EPKK

Flight info

Callsign DLH7AA
Flight time 1h 25m
Altitude 35000
Route TOBAK3W/25C TOBAK N858 SWALM T201 TAMEB DCT NEVKO DCT OMELO DCT OMIFU DCT ETUDA DCT SOPAV DCT PADKA
Aircraft A20N/M-SDE2E3FGHIRWXY/LB1

Departure

Time 2026-05-07 07:50
Airport Frankfurt Main Airport (EDDF)

Arrival

Time 2026-05-07 09:15
Airport Kraków John Paul II International Airport (EPKK)
Time Latitude Longitude Altitude Speed Heading
2026-05-07 07:11 50.04920 8.59186 365 ft 0 kts 340°
2026-05-07 07:41 50.04913 8.59190 364 ft 2 kts 340°
2026-05-07 07:41 50.04901 8.59197 364 ft 0 kts 340°
2026-05-07 07:41 50.04890 8.59204 364 ft 2 kts 332°
2026-05-07 07:41 50.04877 8.59216 364 ft 2 kts 323°
2026-05-07 07:42 50.04866 8.59232 364 ft 2 kts 313°
2026-05-07 07:42 50.04857 8.59250 364 ft 2 kts 302°
2026-05-07 07:42 50.04850 8.59271 364 ft 2 kts 293°
2026-05-07 07:42 50.04845 8.59292 364 ft 1 kts 283°
2026-05-07 07:43 50.04844 8.59302 364 ft 0 kts 281°
2026-05-07 07:46 50.04844 8.59285 364 ft 4 kts 269°
2026-05-07 07:46 50.04836 8.59224 364 ft 6 kts 249°
2026-05-07 07:46 50.04819 8.59156 364 ft 7 kts 249°
2026-05-07 07:46 50.04800 8.59076 364 ft 8 kts 250°
2026-05-07 07:47 50.04779 8.58987 365 ft 9 kts 251°
2026-05-07 07:47 50.04757 8.58893 365 ft 9 kts 250°
2026-05-07 07:47 50.04734 8.58802 366 ft 8 kts 239°
2026-05-07 07:47 50.04683 8.58766 366 ft 9 kts 187°
2026-05-07 07:48 50.04616 8.58750 366 ft 10 kts 199°
2026-05-07 07:48 50.04555 8.58685 366 ft 11 kts 217°
2026-05-07 07:48 50.04504 8.58628 366 ft 6 kts 216°
2026-05-07 07:48 50.04491 8.58604 366 ft 0 kts 246°
2026-05-07 07:49 50.04490 8.58599 366 ft 3 kts 246°
2026-05-07 07:49 50.04404 8.58242 369 ft 75 kts 250°
2026-05-07 07:49 50.04128 8.57090 358 ft 147 kts 250°
2026-05-07 07:50 50.03743 8.55439 803 ft 167 kts 252°
2026-05-07 07:50 50.03349 8.53757 1574 ft 171 kts 252°
2026-05-07 07:50 50.02930 8.52025 2315 ft 176 kts 252°
2026-05-07 07:50 50.02438 8.50288 3082 ft 181 kts 241°
2026-05-07 07:51 50.01568 8.48856 3805 ft 189 kts 219°
2026-05-07 07:51 50.00387 8.47995 4498 ft 195 kts 197°
2026-05-07 07:51 49.99055 8.47624 5215 ft 198 kts 191°
2026-05-07 07:51 49.97680 8.47372 5930 ft 200 kts 189°
2026-05-07 07:52 49.96313 8.47121 6598 ft 203 kts 192°
2026-05-07 07:52 49.94945 8.46601 7294 ft 204 kts 199°
2026-05-07 07:52 49.93594 8.45982 8007 ft 205 kts 200°
2026-05-07 07:52 49.92269 8.45229 8707 ft 202 kts 215°
2026-05-07 07:53 49.91259 8.43824 9377 ft 197 kts 238°
2026-05-07 07:53 49.90688 8.41948 10041 ft 194 kts 259°
2026-05-07 07:53 49.90616 8.39822 10425 ft 206 kts 281°
2026-05-07 07:53 49.91129 8.37707 10775 ft 221 kts 307°
2026-05-07 07:54 49.92391 8.36220 11023 ft 244 kts 341°
2026-05-07 07:54 49.94133 8.36181 11341 ft 268 kts 17°
2026-05-07 07:54 49.95726 8.37821 11724 ft 292 kts 48°
2026-05-07 07:54 49.96852 8.40580 12138 ft 312 kts 61°
2026-05-07 07:55 49.97824 8.43658 12550 ft 329 kts 63°
2026-05-07 07:55 49.98853 8.46887 13215 ft 337 kts 62°
2026-05-07 07:55 49.99936 8.50124 14008 ft 339 kts 60°
2026-05-07 07:55 50.01044 8.53317 14767 ft 342 kts 60°
2026-05-07 07:56 50.02190 8.56550 15497 ft 346 kts 59°
2026-05-07 07:56 50.03360 8.59823 16221 ft 349 kts 59°
2026-05-07 07:56 50.04546 8.63133 16925 ft 352 kts 59°
2026-05-07 07:56 50.05775 8.66442 17616 ft 356 kts 58°
2026-05-07 07:57 50.07034 8.69756 18295 ft 359 kts 58°
2026-05-07 07:57 50.08288 8.73054 18962 ft 361 kts 58°
2026-05-07 07:57 50.09573 8.76451 19619 ft 365 kts 58°
2026-05-07 07:57 50.10847 8.79833 20250 ft 368 kts 58°
2026-05-07 07:58 50.12132 8.83255 20867 ft 371 kts 58°
2026-05-07 07:58 50.13451 8.86771 21492 ft 374 kts 58°
2026-05-07 07:58 50.14745 8.90225 22101 ft 377 kts 58°
2026-05-07 07:58 50.16078 8.93783 22713 ft 380 kts 58°
2026-05-07 07:59 50.17394 8.97302 23305 ft 383 kts 59°
2026-05-07 07:59 50.18733 9.00891 23893 ft 385 kts 59°
2026-05-07 07:59 50.20082 9.04516 24467 ft 388 kts 59°
2026-05-07 07:59 50.21434 9.08153 25035 ft 391 kts 59°
2026-05-07 08:00 50.22809 9.11853 25628 ft 393 kts 59°
2026-05-07 08:00 50.24166 9.15505 26167 ft 395 kts 59°
2026-05-07 08:00 50.25555 9.19249 26683 ft 398 kts 58°
2026-05-07 08:00 50.26938 9.22988 27170 ft 401 kts 58°
2026-05-07 08:01 50.28331 9.26756 27648 ft 403 kts 58°
2026-05-07 08:01 50.29722 9.30525 28093 ft 406 kts 58°
2026-05-07 08:01 50.31125 9.34335 28519 ft 408 kts 58°
2026-05-07 08:01 50.32547 9.38204 28939 ft 411 kts 58°
2026-05-07 08:02 50.33963 9.42059 29334 ft 413 kts 59°
2026-05-07 08:02 50.35394 9.45969 29704 ft 415 kts 59°
2026-05-07 08:02 50.36827 9.49883 30066 ft 417 kts 59°
2026-05-07 08:02 50.38258 9.53797 30414 ft 419 kts 59°
2026-05-07 08:03 50.39715 9.57780 30798 ft 419 kts 59°
2026-05-07 08:03 50.41140 9.61685 31257 ft 417 kts 59°
2026-05-07 08:03 50.42586 9.65651 31627 ft 416 kts 60°
2026-05-07 08:03 50.44013 9.69576 31925 ft 417 kts 60°
2026-05-07 08:04 50.45451 9.73547 32164 ft 418 kts 60°
2026-05-07 08:04 50.46874 9.77477 32396 ft 419 kts 60°
2026-05-07 08:04 50.48304 9.81436 32616 ft 420 kts 60°
2026-05-07 08:04 50.49744 9.85425 32862 ft 421 kts 60°
2026-05-07 08:05 50.51190 9.89442 33071 ft 422 kts 60°
2026-05-07 08:05 50.52623 9.93423 33287 ft 423 kts 60°
2026-05-07 08:05 50.54064 9.97428 33479 ft 425 kts 61°
2026-05-07 08:05 50.55512 10.01458 33682 ft 426 kts 61°
2026-05-07 08:06 50.56979 10.05549 33880 ft 427 kts 61°
2026-05-07 08:06 50.58421 10.09583 34074 ft 428 kts 61°
2026-05-07 08:06 50.59884 10.13684 34257 ft 430 kts 61°
2026-05-07 08:06 50.61330 10.17748 34457 ft 431 kts 61°
2026-05-07 08:07 50.62797 10.21871 34661 ft 432 kts 61°
2026-05-07 08:07 50.64252 10.25967 34880 ft 432 kts 61°
2026-05-07 08:07 50.65713 10.30080 35080 ft 433 kts 61°
2026-05-07 08:07 50.67182 10.34224 35292 ft 433 kts 61°
2026-05-07 08:08 50.68650 10.38373 35473 ft 434 kts 61°
2026-05-07 08:08 50.70117 10.42530 35645 ft 436 kts 61°
2026-05-07 08:08 50.71584 10.46699 35807 ft 438 kts 61°
2026-05-07 08:08 50.73050 10.50873 35983 ft 439 kts 62°
2026-05-07 08:09 50.74530 10.55095 36145 ft 440 kts 62°
2026-05-07 08:09 50.75992 10.59269 36296 ft 441 kts 61°
2026-05-07 08:09 50.77422 10.63529 36450 ft 442 kts 64°
2026-05-07 08:09 50.78709 10.67971 36590 ft 443 kts 69°
2026-05-07 08:10 50.79792 10.72432 36732 ft 443 kts 72°
2026-05-07 08:10 50.80704 10.77026 36864 ft 444 kts 76°
2026-05-07 08:10 50.81448 10.81796 36898 ft 446 kts 79°
2026-05-07 08:11 50.82420 10.91401 36909 ft 446 kts 84°
2026-05-07 08:11 50.83237 11.01072 36914 ft 446 kts 84°
2026-05-07 08:12 50.84063 11.10755 36918 ft 446 kts 84°
2026-05-07 08:12 50.84889 11.20413 36917 ft 446 kts 84°
2026-05-07 08:13 50.85634 11.30127 36913 ft 445 kts 87°
2026-05-07 08:13 50.85818 11.39867 36916 ft 444 kts 91°
2026-05-07 08:14 50.85839 11.49582 36914 ft 444 kts 91°
2026-05-07 08:14 50.85854 11.59345 36915 ft 444 kts 91°
2026-05-07 08:15 50.85865 11.69129 36918 ft 444 kts 92°
2026-05-07 08:15 50.85869 11.77983 36919 ft 444 kts 92°
2026-05-07 08:16 50.85865 11.87734 36920 ft 444 kts 92°
2026-05-07 08:16 50.85854 11.97544 36920 ft 445 kts 92°
2026-05-07 08:17 50.85836 12.07296 36922 ft 445 kts 92°
2026-05-07 08:17 50.85811 12.17057 36923 ft 445 kts 92°
2026-05-07 08:18 50.85776 12.26788 36933 ft 445 kts 92°
2026-05-07 08:18 50.85733 12.36579 36925 ft 445 kts 93°
2026-05-07 08:19 50.85681 12.46334 36922 ft 444 kts 93°
2026-05-07 08:19 50.85622 12.56070 36924 ft 444 kts 93°
2026-05-07 08:20 50.85555 12.65750 36915 ft 444 kts 94°
2026-05-07 08:20 50.85483 12.75207 36922 ft 444 kts 94°
2026-05-07 08:21 50.85400 12.84807 36912 ft 444 kts 94°
2026-05-07 08:21 50.85310 12.94539 36908 ft 443 kts 94°
2026-05-07 08:22 50.85210 13.04258 36903 ft 443 kts 94°
2026-05-07 08:22 50.85102 13.13995 36894 ft 444 kts 94°
2026-05-07 08:23 50.84988 13.23684 36903 ft 444 kts 94°
2026-05-07 08:23 50.84864 13.33433 36893 ft 444 kts 94°
2026-05-07 08:24 50.84732 13.43168 36888 ft 445 kts 94°
2026-05-07 08:24 50.84591 13.52946 36890 ft 446 kts 94°
2026-05-07 08:25 50.84441 13.62746 36886 ft 446 kts 95°
2026-05-07 08:25 50.84291 13.72096 36879 ft 445 kts 95°
2026-05-07 08:26 50.84025 13.86800 36881 ft 445 kts 97°
2026-05-07 08:26 50.83151 13.96373 36880 ft 440 kts 108°
2026-05-07 08:27 50.82235 14.01313 36880 ft 437 kts 114°
2026-05-07 08:27 50.79824 14.09795 36885 ft 431 kts 124°
2026-05-07 08:28 50.76684 14.17734 36890 ft 429 kts 127°
2026-05-07 08:28 50.73449 14.25658 36887 ft 429 kts 127°
2026-05-07 08:29 50.70426 14.33079 36892 ft 429 kts 127°
2026-05-07 08:29 50.67220 14.40936 36891 ft 429 kts 127°
2026-05-07 08:30 50.64001 14.48811 36676 ft 429 kts 127°
2026-05-07 08:30 50.62381 14.52768 36795 ft 430 kts 127°
2026-05-07 08:30 50.60768 14.56702 36849 ft 430 kts 127°
2026-05-07 08:31 50.57521 14.64601 36883 ft 431 kts 127°
2026-05-07 08:31 50.54367 14.72253 36889 ft 431 kts 128°
2026-05-07 08:32 50.51105 14.80143 36897 ft 431 kts 128°
2026-05-07 08:32 50.47863 14.87962 36897 ft 431 kts 128°
2026-05-07 08:33 50.44583 14.95851 36894 ft 431 kts 128°
2026-05-07 08:33 50.43091 14.99432 36899 ft 431 kts 128°
2026-05-07 08:34 50.41606 15.02993 36895 ft 431 kts 128°
2026-05-07 08:34 50.38164 15.11219 36903 ft 431 kts 128°
2026-05-07 08:35 50.34902 15.18993 36899 ft 431 kts 128°
2026-05-07 08:35 50.31603 15.26832 36898 ft 430 kts 128°
2026-05-07 08:36 50.28321 15.34606 36904 ft 431 kts 128°
2026-05-07 08:36 50.25021 15.42404 36906 ft 431 kts 128°
2026-05-07 08:37 50.21700 15.50225 36900 ft 431 kts 128°
2026-05-07 08:37 50.18396 15.57981 36908 ft 430 kts 128°
2026-05-07 08:38 50.15110 15.65680 36906 ft 430 kts 129°
2026-05-07 08:38 50.12134 15.72626 36916 ft 430 kts 129°
2026-05-07 08:39 50.09215 15.79422 36910 ft 429 kts 130°
2026-05-07 08:39 50.05935 15.87162 36914 ft 432 kts 126°
2026-05-07 08:40 50.03364 15.95605 36907 ft 440 kts 115°
2026-05-07 08:40 50.01865 16.04872 36920 ft 449 kts 103°
2026-05-07 08:41 50.01496 16.14631 36930 ft 455 kts 95°
2026-05-07 08:41 50.01486 16.24467 36916 ft 455 kts 95°
2026-05-07 08:42 50.01451 16.34198 36932 ft 454 kts 95°
2026-05-07 08:42 50.01383 16.44022 36926 ft 454 kts 96°
2026-05-07 08:43 50.01197 16.53784 36911 ft 452 kts 99°
2026-05-07 08:43 50.00745 16.63474 36921 ft 452 kts 99°
2026-05-07 08:44 50.00285 16.72893 36925 ft 451 kts 100°
2026-05-07 08:44 49.99809 16.82567 36944 ft 451 kts 100°
2026-05-07 08:45 49.99327 16.92237 36931 ft 450 kts 100°
2026-05-07 08:45 49.98982 16.99065 36943 ft 451 kts 100°
2026-05-07 08:46 49.98848 17.01686 36932 ft 451 kts 100°
2026-05-07 08:46 49.98352 17.11282 36725 ft 451 kts 100°
2026-05-07 08:47 49.98104 17.16098 36505 ft 449 kts 101°
2026-05-07 08:47 49.97952 17.19029 36383 ft 448 kts 100°
2026-05-07 08:47 49.97728 17.23298 36246 ft 445 kts 101°
2026-05-07 08:47 49.97475 17.28088 36061 ft 443 kts 101°
2026-05-07 08:48 49.97224 17.32783 35866 ft 441 kts 101°
2026-05-07 08:48 49.96967 17.37539 35663 ft 440 kts 101°
2026-05-07 08:48 49.96713 17.42208 35434 ft 441 kts 101°
2026-05-07 08:48 49.96452 17.46939 35114 ft 441 kts 101°
2026-05-07 08:49 49.96189 17.51703 34636 ft 442 kts 102°
2026-05-07 08:49 49.95929 17.56393 34018 ft 442 kts 102°
2026-05-07 08:49 49.95663 17.61112 33417 ft 441 kts 102°
2026-05-07 08:49 49.95395 17.65840 32791 ft 441 kts 102°
2026-05-07 08:50 49.95125 17.70562 32168 ft 440 kts 102°
2026-05-07 08:50 49.94857 17.75252 31518 ft 440 kts 102°
2026-05-07 08:50 49.94582 17.79991 30858 ft 440 kts 102°
2026-05-07 08:50 49.94470 17.81931 30588 ft 440 kts 102°
2026-05-07 08:51 49.94196 17.86627 29957 ft 439 kts 102°
2026-05-07 08:51 49.94036 17.89349 29701 ft 435 kts 102°
2026-05-07 08:51 49.93693 17.95191 29144 ft 429 kts 102°
2026-05-07 08:51 49.93502 17.98380 28827 ft 425 kts 102°
2026-05-07 08:52 49.93267 18.02509 28421 ft 422 kts 101°
2026-05-07 08:52 49.93138 18.07047 27969 ft 421 kts 97°
2026-05-07 08:52 49.93163 18.11592 27507 ft 420 kts 95°
2026-05-07 08:52 49.93224 18.16052 27060 ft 417 kts 95°
2026-05-07 08:53 49.93288 18.20572 26595 ft 414 kts 95°
2026-05-07 08:53 49.93348 18.25024 26154 ft 411 kts 95°
2026-05-07 08:53 49.93355 18.29393 25701 ft 407 kts 97°
2026-05-07 08:53 49.93247 18.33736 25260 ft 404 kts 98°
2026-05-07 08:54 49.93115 18.38112 24803 ft 401 kts 98°
2026-05-07 08:54 49.92979 18.42382 24352 ft 399 kts 98°
2026-05-07 08:54 49.92843 18.46681 23919 ft 397 kts 98°
2026-05-07 08:54 49.92709 18.50934 23482 ft 395 kts 98°
2026-05-07 08:55 49.92575 18.55182 23031 ft 394 kts 98°
2026-05-07 08:55 49.92439 18.59398 22578 ft 392 kts 97°
2026-05-07 08:55 49.92303 18.63639 22125 ft 391 kts 97°
2026-05-07 08:55 49.92169 18.67816 21690 ft 389 kts 98°
2026-05-07 08:56 49.92070 18.70882 21376 ft 387 kts 98°
2026-05-07 08:56 49.91956 18.74301 21011 ft 386 kts 98°
2026-05-07 08:56 49.91817 18.78485 20566 ft 384 kts 97°
2026-05-07 08:56 49.91684 18.81729 20213 ft 382 kts 99°
2026-05-07 08:57 49.91457 18.85862 19764 ft 379 kts 99°
2026-05-07 08:57 49.91218 18.89935 19324 ft 377 kts 99°
2026-05-07 08:57 49.90982 18.93965 19004 ft 371 kts 99°
2026-05-07 08:57 49.90757 18.97922 18845 ft 359 kts 99°
2026-05-07 08:58 49.90544 19.01706 18730 ft 347 kts 99°
2026-05-07 08:58 49.90337 19.05383 18457 ft 340 kts 99°
2026-05-07 08:58 49.90128 19.08992 18072 ft 339 kts 99°
2026-05-07 08:58 49.89922 19.12552 17710 ft 337 kts 99°
2026-05-07 08:59 49.89721 19.15997 17350 ft 335 kts 99°
2026-05-07 08:59 49.89509 19.19631 16977 ft 333 kts 99°
2026-05-07 08:59 49.89299 19.23194 16594 ft 331 kts 99°
2026-05-07 08:59 49.89184 19.26716 16213 ft 332 kts 90°
2026-05-07 09:00 49.89607 19.30268 15856 ft 335 kts 73°
2026-05-07 09:00 49.90479 19.33621 15481 ft 334 kts 68°
2026-05-07 09:00 49.91429 19.36871 15120 ft 332 kts 67°
2026-05-07 09:00 49.92381 19.40127 14758 ft 330 kts 68°
2026-05-07 09:01 49.93306 19.43363 14392 ft 327 kts 68°
2026-05-07 09:01 49.94210 19.46609 14031 ft 325 kts 70°
2026-05-07 09:01 49.94947 19.49925 13674 ft 321 kts 76°
2026-05-07 09:01 49.95463 19.53237 13330 ft 318 kts 80°
2026-05-07 09:02 49.95913 19.56606 12969 ft 315 kts 81°
2026-05-07 09:02 49.96348 19.59932 12621 ft 314 kts 80°
2026-05-07 09:02 49.96782 19.63213 12261 ft 312 kts 80°
2026-05-07 09:02 49.97227 19.66529 11916 ft 310 kts 81°
2026-05-07 09:03 49.97670 19.69808 11561 ft 308 kts 80°
2026-05-07 09:03 49.98009 19.72321 11284 ft 307 kts 80°
2026-05-07 09:03 49.98323 19.74649 11037 ft 306 kts 80°
2026-05-07 09:03 49.98774 19.77976 10681 ft 304 kts 80°
2026-05-07 09:04 49.99203 19.81141 10331 ft 303 kts 80°
2026-05-07 09:04 49.99642 19.84381 9982 ft 302 kts 80°
2026-05-07 09:04 50.00070 19.87550 9636 ft 300 kts 80°
2026-05-07 09:04 50.00495 19.90682 9307 ft 298 kts 79°
2026-05-07 09:05 50.00917 19.93794 9209 ft 286 kts 80°
2026-05-07 09:05 50.01318 19.96755 9068 ft 277 kts 80°
2026-05-07 09:05 50.01705 19.99624 8916 ft 268 kts 80°
2026-05-07 09:05 50.02090 20.02470 8682 ft 267 kts 80°
2026-05-07 09:06 50.02467 20.05260 8417 ft 266 kts 80°
2026-05-07 09:06 50.02850 20.08092 8133 ft 265 kts 80°
2026-05-07 09:06 50.03223 20.10861 7850 ft 264 kts 80°
2026-05-07 09:06 50.03599 20.13653 7566 ft 262 kts 80°
2026-05-07 09:07 50.03974 20.16419 7294 ft 261 kts 80°
2026-05-07 09:07 50.04346 20.19174 7019 ft 260 kts 80°
2026-05-07 09:07 50.04839 20.21852 6687 ft 262 kts 61°
2026-05-07 09:07 50.06104 20.23816 6377 ft 258 kts 22°
2026-05-07 09:08 50.07801 20.24224 6104 ft 247 kts 346°
2026-05-07 09:08 50.09451 20.23534 5865 ft 245 kts 340°
2026-05-07 09:08 50.11014 20.22845 5628 ft 243 kts 339°
2026-05-07 09:08 50.12513 20.21632 5351 ft 233 kts 308°
2026-05-07 09:09 50.13131 20.20073 5172 ft 226 kts 284°
2026-05-07 09:09 50.13275 20.18060 4966 ft 221 kts 260°
2026-05-07 09:09 50.12943 20.15760 4725 ft 217 kts 255°
2026-05-07 09:09 50.12602 20.13486 4473 ft 214 kts 256°
2026-05-07 09:10 50.12319 20.11240 4224 ft 211 kts 259°
2026-05-07 09:10 50.12054 20.09008 3978 ft 207 kts 258°
2026-05-07 09:10 50.11778 20.06867 3790 ft 196 kts 257°
2026-05-07 09:10 50.11498 20.04845 3610 ft 190 kts 257°
2026-05-07 09:11 50.11214 20.02852 3429 ft 184 kts 257°
2026-05-07 09:11 50.10939 20.00932 3257 ft 182 kts 257°
2026-05-07 09:11 50.10662 19.99003 3088 ft 182 kts 257°
2026-05-07 09:11 50.10400 19.97164 3016 ft 170 kts 257°
2026-05-07 09:12 50.10150 19.95408 2768 ft 165 kts 257°
2026-05-07 09:12 50.09910 19.93715 2523 ft 154 kts 257°
2026-05-07 09:12 50.09691 19.92163 2330 ft 139 kts 257°
2026-05-07 09:12 50.09493 19.90755 2136 ft 131 kts 257°
2026-05-07 09:13 50.09298 19.89372 1973 ft 130 kts 257°
2026-05-07 09:13 50.09108 19.88006 1811 ft 129 kts 258°
2026-05-07 09:13 50.08915 19.86638 1639 ft 129 kts 257°
2026-05-07 09:13 50.08712 19.85273 1490 ft 129 kts 257°
2026-05-07 09:14 50.08521 19.83894 1314 ft 131 kts 258°
2026-05-07 09:14 50.08330 19.82520 1154 ft 131 kts 258°
2026-05-07 09:14 50.08140 19.81115 977 ft 131 kts 258°
2026-05-07 09:14 50.07946 19.79752 816 ft 127 kts 258°
2026-05-07 09:15 50.07780 19.78552 802 ft 93 kts 258°
2026-05-07 09:15 50.07681 19.77832 802 ft 48 kts 258°
2026-05-07 09:15 50.07617 19.77357 802 ft 39 kts 258°
2026-05-07 09:15 50.07566 19.77019 802 ft 19 kts 257°
2026-05-07 09:16 50.07537 19.76867 802 ft 10 kts 227°
2026-05-07 09:16 50.07462 19.76858 802 ft 11 kts 168°
2026-05-07 09:16 50.07379 19.76886 801 ft 12 kts 168°
2026-05-07 09:16 50.07313 19.76933 801 ft 10 kts 115°
2026-05-07 09:17 50.07321 19.77052 801 ft 11 kts 77°
2026-05-07 09:17 50.07342 19.77193 801 ft 16 kts 77°
2026-05-07 09:17 50.07368 19.77396 801 ft 22 kts 77°
2026-05-07 09:17 50.07403 19.77636 801 ft 22 kts 77°
2026-05-07 09:18 50.07435 19.77875 801 ft 22 kts 78°
2026-05-07 09:18 50.07468 19.78109 801 ft 22 kts 78°
2026-05-07 09:18 50.07501 19.78344 801 ft 23 kts 78°
2026-05-07 09:18 50.07538 19.78605 801 ft 25 kts 78°
2026-05-07 09:19 50.07576 19.78881 801 ft 26 kts 78°
2026-05-07 09:19 50.07613 19.79152 801 ft 25 kts 78°
2026-05-07 09:19 50.07650 19.79419 801 ft 24 kts 77°
2026-05-07 09:19 50.07678 19.79612 801 ft 10 kts 78°
2026-05-07 09:20 50.07659 19.79692 801 ft 9 kts 162°
2026-05-07 09:20 50.07591 19.79715 801 ft 10 kts 168°
2026-05-07 09:20 50.07512 19.79743 801 ft 13 kts 167°
2026-05-07 09:20 50.07413 19.79779 801 ft 11 kts 167°
2026-05-07 09:21 50.07373 19.79841 801 ft 8 kts 89°
2026-05-07 09:21 50.07386 19.79928 801 ft 6 kts 76°
2026-05-07 09:21 50.07380 19.79978 801 ft 4 kts 152°
2026-05-07 09:21 50.07344 19.79993 801 ft 5 kts 167°
2026-05-07 09:22 50.07315 19.80003 801 ft 1 kts 167°
2026-05-07 09:22 50.07305 19.80007 801 ft 0 kts 167°